[[{"header":{"parameterUnit":"m.s-1","parameterCategory":1,"la1":30.2991,"la2":30.254,"lo1":-89.0895,"lo2":-89.0444,"dy":0.0017,"dx":0.0017,"nx":28,"ny":28,"refTime":"2023-08-06T09:00:00:Z","depth":0,"parameterNumber":2,"parameterNumberName":"U-component_of_WINDS"},"data":[0,0,0,0,0,0,0,0,0,0,0,0,0,0,0,0,0,0,0,0,0,0,0,0,0,0,0,0,0,0,0,0,0,0,0,0,0,0,0,0,0,0,0,0,0,0,0,0,0,0,0,0,0,0,0,0,0,0,5.3311,5.3313,0,5.3515,5.3517,5.352,5.3482,5.3478,5.3474,5.3471,5.3681,5.369,5.3699,0,0,0,0,0,0,0,0,0,0,0,0,0,5.2885,5.2893,5.331,5.3313,5.3315,5.3515,5.3518,5.352,5.3482,5.3478,5.3473,5.3469,5.3678,5.3689,5.3699,0,0,0,0,0,0,0,0,0,0,0,0,0,5.3078,5.2895,5.331,5.332,5.3323,5.3514,5.3518,5.3521,5.3483,5.3478,5.3472,5.3467,5.3674,5.3688,5.3701,5.3894,0,0,5.3742,5.3748,0,0,0,0,0,0,0,0,5.3067,5.3093,5.3316,5.332,5.3324,5.3467,5.3445,5.3646,5.3485,5.3423,5.3471,5.3464,5.3614,5.3632,5.3683,5.3904,5.3913,5.3743,5.3752,5.3757,5.3761,0,0,0,0,0,0,0,5.3053,5.3084,5.3391,5.332,5.3324,5.3314,5.3336,5.3483,5.3547,5.3428,5.3425,5.345,5.3615,5.367,5.3688,5.3916,5.3743,5.3755,5.3763,5.3769,5.4303,5.4308,0,0,0,0,0,0,5.3037,5.3073,5.3385,5.3397,5.3179,5.3327,5.335,5.3427,5.3545,5.3558,5.3454,5.3447,5.365,5.3672,5.3695,5.3926,5.3757,5.377,5.3778,5.4297,5.4304,5.4311,0,0,0,0,0,0,5.3028,5.3065,5.3377,5.3235,5.3274,5.334,5.3426,5.3434,5.3488,5.3565,5.3577,5.3499,5.3646,5.3676,5.3844,5.3933,5.3776,5.3788,5.4289,5.4299,5.4307,5.4392,0,0,0,0,0,0,5.3016,5.3062,5.3137,5.3237,5.3282,5.3523,5.3431,5.3442,5.3512,5.3504,5.361,5.3622,5.3644,5.3824,5.3858,5.3949,5.3799,5.4282,5.4294,5.4304,5.4382,5.4403,5.4422,0,0,0,0,0,5.3001,5.3153,5.3141,5.3178,5.3376,5.3528,5.3554,5.3576,5.3519,5.3594,5.3643,5.3619,5.3918,5.3842,5.3879,5.3976,5.4276,5.429,5.4304,5.4373,5.4399,5.4421,0,0,0,0,0,0,5.3062,5.3167,5.3154,5.3343,5.3427,5.3522,5.3617,5.3604,5.3706,5.3695,5.3718,5.3742,5.3912,5.3961,5.3874,5.4167,5.4089,5.4111,5.4129,5.4155,5.4174,5.4158,5.381,0,0,0,0,0,5.3098,5.3213,5.3298,5.3457,5.3499,5.3551,5.3618,5.3628,5.3716,5.3751,5.3813,5.3899,5.4012,5.4086,5.4195,5.4389,5.441,5.4474,5.4494,5.451,5.4528,5.4631,5.4659,5.4356,5.4355,5.4355,0,0,5.3173,5.3244,5.3315,5.3471,5.3537,5.3655,5.3581,5.371,5.3797,5.3771,5.3932,5.3981,5.4078,5.426,5.4343,5.4305,5.4616,5.4527,5.4539,5.4549,5.4648,5.4677,5.4702,5.4365,5.4363,5.4362,0,0,5.3368,5.3435,5.3573,5.364,5.3741,5.3774,5.3807,5.3904,5.3934,5.4097,5.4079,5.4183,5.4379,5.4448,5.4509,5.4729,5.4709,5.4764,5.4867,5.4967,5.4991,5.5012,5.5088,5.5115,5.4782,5.4782,5.4782,0,5.3448,5.3625,5.3646,5.3776,5.3843,5.3825,5.3964,5.4028,5.416,5.4207,5.4163,5.4406,5.4471,5.4666,5.472,5.4771,5.4808,5.4751,5.4986,5.5008,5.5028,5.51,5.5129,5.4788,5.4787,5.4786,5.4786,0,5.3717,5.384,5.394,5.4066,5.4145,5.4279,5.4319,5.4397,5.4399,5.4436,5.4601,5.4678,5.48,5.4848,5.4853,5.5044,5.5017,5.498,5.4902,5.5062,5.513,5.5159,5.4796,5.4794,5.4792,5.4791,0,0,5.3958,5.4092,5.4128,5.4184,5.4292,5.4387,5.452,5.4639,5.4704,5.4795,5.4905,5.507,5.5035,5.5104,5.5116,5.5205,5.537,5.5156,5.5159,5.5191,5.5583,5.5608,5.564,5.5358,5.5364,5.5368,5.5574,0,5.4162,5.4395,5.4416,5.4625,5.4737,5.472,5.4835,5.4913,5.4951,5.5052,5.5094,5.5209,5.5156,5.5197,5.5284,5.5332,5.5449,5.5317,5.5459,5.5464,5.5433,5.5677,5.5705,5.5895,5.5601,5.5605,5.5609,0,5.4431,5.4528,5.4748,5.4838,5.4886,5.4989,5.5098,5.5195,5.5283,5.5304,5.538,5.538,5.5515,5.5432,5.5617,5.5527,5.5586,5.5618,5.5626,5.5639,5.5545,5.5693,5.5957,5.5984,5.5652,5.5648,5.5645,0,5.4581,5.4767,5.4922,5.497,5.5081,5.5152,5.5202,5.5285,5.5354,5.545,5.5494,5.5605,5.5665,5.5751,5.5779,5.5717,5.5962,5.5883,5.5982,5.5981,5.6033,5.6029,5.6307,5.6076,5.6075,5.6075,5.6074,0,5.4805,5.494,5.499,5.5085,5.5234,5.5257,5.5404,5.545,5.5523,5.5625,5.5618,5.5714,5.5748,5.5849,5.5873,5.6021,5.6049,5.6068,5.6073,5.6068,5.6065,5.6106,5.6092,5.6082,5.6081,5.6079,5.6078,0,5.4998,5.5037,5.5204,5.5294,5.532,5.5425,5.5502,5.5593,5.5629,5.5758,5.579,5.5846,5.5965,5.6003,5.6147,5.6163,5.6334,5.6328,5.6304,5.6304,5.64,5.639,5.6713,5.6755,5.6498,5.65,5.6502,0,5.5137,5.524,5.534,5.5408,5.546,5.5569,5.5639,5.5666,5.5739,5.5846,5.5923,5.6041,5.6136,5.6327,5.638,5.649,5.6484,5.659,5.6501,5.6492,5.6483,5.6475,5.6484,5.6606,5.6609,5.6611,5.6613,0,5.538,5.5393,5.5495,5.5603,5.5686,5.5773,5.5856,5.5912,5.595,5.6032,5.6153,5.6227,5.6373,5.6489,5.66,5.665,5.6637,5.6641,5.6669,5.6664,5.6644,5.6653,5.6347,5.6633,5.6631,5.6629,5.6628,5.6627,5.5548,5.5637,5.5721,5.5833,5.5898,5.5976,5.6064,5.6111,5.6212,5.6332,5.6342,5.6471,5.6555,5.6702,5.6758,5.6859,5.6829,5.6871,5.6881,5.689,5.6896,5.663,5.688,5.688,5.6879,5.6879,5.6878,0,5.5788,5.584,5.5943,5.6059,5.6147,5.6127,5.6218,5.6292,5.6407,5.6485,5.6578,5.6716,5.6828,5.689,5.7001,5.707,5.7067,5.7098,5.7092,5.7104,5.6919,5.6881,5.7099,5.7099,5.7099,5.7099,5.7099,5.7099,5.5923,5.6071,5.6095,5.6275,5.6326,5.6453,5.6506,5.6576,5.6639,5.6792,5.6885,5.6924,5.6996,5.7112,5.7213,5.7228,5.7268,5.7303,5.7314,5.714,5.7117,5.7095,5.706,5.7312,5.7312,5.749,5.7492,5.7493]},{"header":{"parameterUnit":"m.s-1","parameterCategory":1,"la1":30.2991,"la2":30.254,"lo1":-89.0895,"lo2":-89.0444,"dy":0.0017,"dx":0.0017,"nx":28,"ny":28,"refTime":"2023-08-06T09:00:00:Z","depth":0,"parameterNumber":3,"parameterNumberName":"V-component_of_WINDS"},"data":[0,0,0,0,0,0,0,0,0,0,0,0,0,0,0,0,0,0,0,0,0,0,0,0,0,0,0,0,0,0,0,0,0,0,0,0,0,0,0,0,0,0,0,0,0,0,0,0,0,0,0,0,0,0,0,0,0,0,1.6704,1.6705,0,1.6743,1.6743,1.6744,1.6713,1.6711,1.671,1.6709,1.6749,1.6752,1.6754,0,0,0,0,0,0,0,0,0,0,0,0,0,1.6602,1.6604,1.6704,1.6705,1.6705,1.6743,1.6743,1.6744,1.6713,1.6711,1.671,1.6708,1.6749,1.6751,1.6754,0,0,0,0,0,0,0,0,0,0,0,0,0,1.6644,1.6605,1.6704,1.6694,1.6694,1.6743,1.6743,1.6744,1.6713,1.6711,1.6709,1.6707,1.6748,1.6751,1.6755,1.6816,0,0,1.6765,1.6767,0,0,0,0,0,0,0,0,1.6642,1.6648,1.6695,1.6695,1.6694,1.6721,1.6722,1.6768,1.6714,1.6706,1.6709,1.6706,1.6742,1.6745,1.6757,1.6818,1.6819,1.6765,1.6768,1.6769,1.677,0,0,0,0,0,0,0,1.6639,1.6646,1.6719,1.6696,1.6695,1.6687,1.6691,1.6731,1.6734,1.6706,1.6704,1.6709,1.6741,1.6754,1.6758,1.682,1.6765,1.6768,1.6771,1.6772,1.6931,1.6933,0,0,0,0,0,0,1.6637,1.6644,1.6718,1.6721,1.6663,1.6691,1.6695,1.6714,1.6734,1.6735,1.6711,1.6708,1.6749,1.6754,1.6759,1.6832,1.6769,1.6772,1.6774,1.6929,1.6932,1.6934,0,0,0,0,0,0,1.6635,1.6644,1.6717,1.6682,1.669,1.6695,1.6717,1.6716,1.6729,1.6737,1.6738,1.6723,1.6748,1.6754,1.6802,1.6833,1.6774,1.6777,1.6927,1.693,1.6933,1.6977,0,0,0,0,0,0,1.6632,1.6644,1.6667,1.6683,1.6692,1.6759,1.6719,1.6718,1.6735,1.6731,1.6749,1.675,1.6746,1.6797,1.6805,1.6836,1.678,1.6924,1.6928,1.6932,1.6973,1.6982,1.6989,0,0,0,0,0,1.6629,1.6679,1.6669,1.6678,1.6722,1.6761,1.6766,1.6761,1.6738,1.6761,1.6766,1.675,1.6827,1.6802,1.6811,1.6844,1.6922,1.6927,1.6931,1.6969,1.698,1.6989,0,0,0,0,0,0,1.6668,1.6681,1.667,1.6726,1.6742,1.6755,1.6785,1.6772,1.6796,1.6791,1.6783,1.6788,1.6837,1.6845,1.6816,1.6903,1.6871,1.6878,1.6897,1.6907,1.6914,1.6912,1.6783,0,0,0,0,0,1.6683,1.6713,1.6722,1.6771,1.678,1.6781,1.6798,1.6792,1.6809,1.6816,1.6824,1.6841,1.6869,1.6888,1.6915,1.6973,1.6977,1.7,1.7008,1.7015,1.7021,1.7052,1.7062,1.695,1.695,1.695,0,0,1.6714,1.6725,1.6745,1.6779,1.6791,1.6823,1.6787,1.6822,1.6845,1.6821,1.6866,1.6873,1.6891,1.6944,1.6968,1.6952,1.7052,1.7021,1.7026,1.7029,1.7058,1.7068,1.7078,1.6953,1.6952,1.6952,0,0,1.6788,1.6799,1.684,1.6853,1.6871,1.6871,1.6881,1.6896,1.6899,1.6944,1.6926,1.6953,1.7002,1.7015,1.7029,1.7105,1.7091,1.7114,1.7156,1.7186,1.7195,1.7202,1.7229,1.7239,1.712,1.712,1.712,0,1.6825,1.6871,1.6863,1.6899,1.6915,1.6893,1.6934,1.6947,1.6973,1.6984,1.6966,1.7026,1.7037,1.7092,1.711,1.7122,1.7133,1.7112,1.7194,1.7202,1.7209,1.7234,1.7245,1.7123,1.7123,1.7122,1.7122,0,1.6916,1.6948,1.6979,1.7004,1.7023,1.7062,1.7059,1.7079,1.7071,1.7073,1.7118,1.713,1.7158,1.717,1.7163,1.7225,1.7214,1.7195,1.7163,1.7222,1.7246,1.7256,1.7127,1.7126,1.7125,1.7124,0,0,1.7017,1.7035,1.7047,1.7058,1.7075,1.71,1.7137,1.7164,1.7181,1.7199,1.723,1.7271,1.7252,1.7267,1.7261,1.7288,1.7347,1.7265,1.7265,1.728,1.7414,1.7429,1.744,1.7336,1.7338,1.734,1.7413,0,1.7091,1.7155,1.7148,1.721,1.7239,1.7218,1.725,1.7264,1.7266,1.7291,1.7293,1.7323,1.7297,1.7305,1.733,1.7334,1.7374,1.7329,1.7365,1.7366,1.7362,1.7453,1.7469,1.7537,1.7422,1.7424,1.7425,0,1.7187,1.7208,1.7272,1.7284,1.7296,1.7325,1.7348,1.7372,1.7387,1.7387,1.7403,1.7391,1.7428,1.7394,1.7444,1.7413,1.7427,1.7431,1.7434,1.7437,1.74,1.7459,1.7559,1.7569,1.7439,1.7438,1.7437,0,1.7254,1.7298,1.7341,1.7351,1.7366,1.7387,1.7394,1.7407,1.7423,1.7443,1.7454,1.7478,1.7491,1.751,1.7505,1.7481,1.7556,1.7522,1.7557,1.7557,1.7574,1.7573,1.7678,1.7583,1.7582,1.7582,1.7582,0,1.7338,1.7378,1.7372,1.7399,1.7442,1.7433,1.7477,1.7481,1.7493,1.752,1.7503,1.7529,1.7521,1.7546,1.7542,1.7584,1.759,1.759,1.7589,1.7592,1.7592,1.7602,1.7597,1.7585,1.7584,1.7584,1.7583,0,1.7421,1.7418,1.7464,1.7474,1.7477,1.7509,1.7518,1.7543,1.7543,1.7577,1.7585,1.7585,1.7614,1.761,1.7643,1.764,1.7691,1.7684,1.7687,1.7685,1.772,1.7717,1.7835,1.785,1.7745,1.7746,1.7746,0,1.7475,1.7505,1.7518,1.7534,1.7543,1.757,1.7586,1.7578,1.7595,1.7613,1.7636,1.7663,1.7684,1.773,1.7733,1.7758,1.7751,1.779,1.7755,1.7756,1.7752,1.775,1.7753,1.7798,1.7799,1.78,1.7801,0,1.7571,1.7568,1.7591,1.7614,1.7634,1.7651,1.7667,1.7682,1.7675,1.7695,1.7723,1.774,1.7772,1.7799,1.7821,1.7828,1.7813,1.7812,1.7821,1.7825,1.7825,1.7825,1.7706,1.781,1.7809,1.7808,1.7808,1.7807,1.7641,1.7667,1.7679,1.7706,1.7716,1.7731,1.7755,1.7757,1.7781,1.7806,1.78,1.7832,1.7845,1.7873,1.7882,1.7907,1.7893,1.7906,1.791,1.7914,1.7918,1.7821,1.7911,1.7911,1.7911,1.7911,1.791,0,1.7736,1.7743,1.7767,1.779,1.781,1.7794,1.781,1.7828,1.7857,1.787,1.789,1.7923,1.7948,1.7952,1.7976,1.7995,1.7989,1.8002,1.8001,1.8002,1.7929,1.7919,1.8006,1.8006,1.8006,1.8006,1.8006,1.8006,1.7789,1.783,1.7828,1.7875,1.7881,1.7912,1.7923,1.7936,1.7946,1.7983,1.8004,1.8006,1.8016,1.804,1.8062,1.8062,1.8072,1.8088,1.8085,1.8017,1.8008,1.7999,1.7989,1.809,1.809,1.8157,1.8157,1.8158]}]]